User: anonymous   Login
Location: Churchill
(58.7670°N, 94.1670°W)
Time: 16:14:12
(UTC-06:00)
Language:

Cosmos 1315 Rocket - Orbit

View from above orbital plane
View from above orbital plane
View from above satellite
View from above satellite

Ground track
Ground track

The orbit data is extracted from the following two-line orbital elements,

1 12904U 81103B   14327.49093535  .00003868  00000-0  28237-3 0  6351
2 12904 081.1791 264.1959 0027821 264.4302 095.3747 15.03162862351976
Epoch (UTC): 23 November 2014 11:46:56
Eccentricity: 0.0027821
inclination: 81.1791°
perigee height: 538 km
apogee height: 576 km
right ascension of ascending node: 264.1959°
argument of perigee: 264.4302°
revolutions per day: 15.03162862
mean anomaly at epoch: 95.3747°
orbit number at epoch: 35197

The dashed part of the orbit path shows where the satellite is in the earth's shadow,  

DLR